| time (UTC) | temp C | wind direction | speed KPH | gust KPH | rain 1hr cm | rain 24hr cm | rain mn cm | humidity % | barometer mb |
| 20260504050138 | 19 | 332 | 20.9 | 35.4 | 0.00 | 0.61 | 0.61 | 48 | 1008.6 |
| 20260504044502 | 20 | 360 | 24.1 | 38.6 | 0.00 | 0.61 | 0.61 | 46 | 1008.5 |
| 20260504043102 | 20 | 326 | 17.7 | 32.2 | 0.00 | 0.61 | 0.61 | 49 | 1008.5 |
| 20260504041501 | 21 | 342 | 22.5 | 35.4 | 0.00 | 0.61 | 0.61 | 48 | 1008.5 |
| 20260504040106 | 20 | 343 | 17.7 | 30.6 | 0.00 | 0.61 | 0.61 | 47 | 1008.5 |
| 20260504034501 | 20 | 357 | 20.9 | 32.2 | 0.00 | 0.61 | 0.61 | 51 | 1008.5 |
| 20260504033101 | 20 | 344 | 17.7 | 32.2 | 0.00 | 0.61 | 0.61 | 50 | 1008.6 |
| 20260504031502 | 20 | 26 | 12.9 | 24.1 | 0.00 | 0.61 | 0.61 | 50 | 1008.6 |
| 20260504030104 | 20 | 319 | 19.3 | 30.6 | 0.00 | 0.61 | 0.61 | 52 | 1008.8 |
| 20260504024502 | 20 | 4 | 12.9 | 25.7 | 0.00 | 0.61 | 0.61 | 53 | 1009.1 |
| 20260504023101 | 20 | 52 | 8.0 | 22.5 | 0.00 | 0.61 | 0.61 | 55 | 1009.2 |
| 20260504021502 | 19 | 339 | 19.3 | 27.4 | 0.00 | 0.61 | 0.61 | 56 | 1009.7 |
| 20260504020108 | 19 | 334 | 17.7 | 30.6 | 0.00 | 0.61 | 0.61 | 55 | 1009.9 |
| 20260504014505 | 19 | 14 | 14.5 | 24.1 | 0.00 | 0.61 | 0.61 | 55 | 1010.1 |
| 20260504013113 | 18 | 329 | 12.9 | 20.9 | 0.00 | 0.61 | 0.61 | 60 | 1010.5 |
| 20260504011502 | 18 | 325 | 17.7 | 30.6 | 0.00 | 0.61 | 0.61 | 58 | 1010.8 |
| 20260504010001 | 18 | 352 | 16.1 | 24.1 | 0.00 | 0.61 | 0.61 | 61 | 1011.0 |
| 20260504004601 | 17 | 350 | 14.5 | 22.5 | 0.00 | 0.61 | 0.61 | 64 | 1011.0 |
| 20260504003001 | 17 | 317 | 17.7 | 25.7 | 0.00 | 0.61 | 0.61 | 64 | 1011.1 |
| 20260504001612 | 17 | 309 | 17.7 | 27.4 | 0.00 | 0.61 | 0.61 | 66 | 1011.0 |
| 20260504000002 | 16 | 312 | 14.5 | 20.9 | 0.00 | 0.61 | 0.61 | 71 | 1011.0 |
| 20260503234602 | 16 | 349 | 11.3 | 19.3 | 0.00 | 0.61 | 0.61 | 74 | 1011.0 |
| 20260503233002 | 15 | 310 | 4.8 | 14.5 | 0.00 | 0.61 | 0.61 | 80 | 1011.0 |
| 20260503231602 | 14 | 327 | 9.7 | 14.5 | 0.00 | 0.61 | 0.61 | 86 | 1011.2 |
| 20260503230002 | 13 | 325 | 6.4 | 17.7 | 0.00 | 0.61 | 0.61 | 92 | 1011.3 |
| 20260503224601 | 13 | 344 | 9.7 | 16.1 | 0.00 | 0.61 | 0.61 | 94 | 1011.5 |
| 20260503223001 | 13 | 302 | 6.4 | 11.3 | 0.00 | 0.61 | 0.61 | 95 | 1011.7 |
| 20260503221601 | 12 | 292 | 4.8 | 11.3 | 0.00 | 0.61 | 0.61 | 95 | 1011.4 |
| 20260503220006 | 11 | 304 | 1.6 | 4.8 | 0.00 | 0.61 | 0.61 | 94 | 1011.3 |
| 20260503214601 | 11 | 300 | 0.0 | 1.6 | 0.00 | 0.61 | 0.61 | 94 | 1011.1 |
| 20260503213001 | 11 | 300 | 1.6 | 6.4 | 0.00 | 0.61 | 0.61 | 94 | 1010.8 |
| 20260503211500 | 12 | 9 | 3.2 | 6.4 | 0.00 | 0.61 | 0.61 | 94 | 1010.5 |
| 20260503210104 | 12 | 297 | 4.8 | 8.0 | 0.00 | 0.61 | 0.61 | 94 | 1010.2 |
| 20260503204504 | 13 | 319 | 3.2 | 6.4 | 0.00 | 0.61 | 0.61 | 94 | 1010.0 |
| 20260503203115 | 13 | 324 | 6.4 | 12.9 | 0.00 | 0.61 | 0.61 | 94 | 1009.9 |
| 20260503201501 | 13 | 356 | 1.6 | 3.2 | 0.00 | 0.61 | 0.61 | 94 | 1010.0 |
| 20260503200004 | 13 | 358 | 0.0 | 3.2 | 0.00 | 0.61 | 0.61 | 94 | 1009.8 |
| 20260503194601 | 13 | 288 | 0.0 | 3.2 | 0.00 | 0.61 | 0.61 | 94 | 1009.9 |
| 20260503193001 | 13 | 288 | 0.0 | 1.6 | 0.00 | 0.61 | 0.61 | 94 | 1009.9 |
| 20260503191607 | 13 | 287 | 0.0 | 3.2 | 0.03 | 0.61 | 0.61 | 94 | 1009.8 |
| 20260503184502 | 13 | 321 | 0.0 | 4.8 | 0.08 | 0.61 | 0.61 | 94 | 1009.6 |
| 20260503183108 | 13 | 321 | 3.2 | 6.4 | 0.08 | 0.61 | 0.61 | 94 | 1009.4 |
| 20260503181502 | 13 | 21 | 0.0 | 6.4 | 0.05 | 0.61 | 0.58 | 94 | 1009.3 |
| 20260503180103 | 13 | 300 | 0.0 | 3.2 | 0.03 | 0.56 | 0.53 | 94 | 1009.5 |
| 20260503174505 | 13 | 283 | 1.6 | 8.0 | 0.00 | 0.53 | 0.51 | 94 | 1009.7 |
| 20260503173132 | 13 | 102 | 0.0 | 8.0 | 0.00 | 0.53 | 0.51 | 94 | 1009.5 |
| 20260503171503 | 13 | 173 | 1.6 | 6.4 | 0.00 | 0.53 | 0.51 | 93 | 1009.7 |
| 20260503081604 | 21 | 16 | 8.0 | 20.9 | 0.00 | 0.00 | 0.00 | 67 | 1009.3 |
| 20260503071505 | 21 | 15 | 3.2 | 16.1 | 0.00 | 0.00 | 0.00 | 66 | 1009.1 |
| 20260503070115 | 21 | 309 | 4.8 | 11.3 | 0.00 | 0.00 | 0.00 | 66 | 1009.2 |
| 20260503054603 | 22 | 341 | 17.7 | 30.6 | 0.00 | 0.00 | 0.00 | 63 | 1009.7 |
| 20260503053002 | 22 | 4 | 11.3 | 24.1 | 0.00 | 0.00 | 0.00 | 63 | 1010.0 |
| 20260503051602 | 22 | 304 | 14.5 | 38.6 | 0.00 | 0.00 | 0.00 | 62 | 1010.1 |